This demonstration page uses our WeatherBlox Daily Observations layout. Learn more.

Left ArrowRight Arrow

39.92423, -83.80882

Hourly Observations for February 13, 2019

Temp ( °F °C ) Dew Point ( °F °C ) Humidity (%) Winds ( mph kmh ) Pressure ( in mb ) Visibility ( mi km ) Precip ( " mm )
12:03 am 00:03 Windy with Snow Likely 30 -1 25 -4 80 80 W 24 39 29.85 1011 9 14.48406 N/A
12:56 am 00:56 Windy with Snow Likely 29 -1.7 24 -4.4 82 82 W 23 37 29.82 1010 9 14.48406 N/A
1:56 am 01:56 Windy with Snow Likely 29 -1.7 22 -5.6 75 75 WSW 25 41 29.83 1010 9 14.48406 N/A
2:56 am 02:56 Windy with Snow Likely 28 -2.2 22 -5.6 78 78 WSW 28 44 29.82 1010 8 12.87472 N/A
3:03 am 03:03 Windy with Snow Likely 27 -3 21 -6 80 80 W 25 41 29.87 1011 9 14.48406 N/A
3:48 am 03:48 Windy with Snow Likely 27 -3 21 -6 80 80 W 25 41 29.87 1011 9 14.48406 N/A
3:56 am 03:56 Windy with Snow Likely 27 -2.8 22 -5.6 81 81 WSW 25 41 29.83 1010 7 11.26538 N/A
4:04 am 04:04 Windy with Snow Likely 27 -3 21 -6 80 80 WSW 25 41 29.87 1011 9 14.48406 N/A
4:44 am 04:44 Windy with Snow Likely 27 -3 21 -6 80 80 WSW 26 43 29.87 1011 9 14.48406 N/A
4:56 am 04:56 Windy with Snow Likely 27 -2.8 21 -6.1 78 78 WSW 26 43 29.83 1010 8 12.87472 N/A
5:56 am 05:56 Windy with Snow Likely 26 -3.3 20 -6.7 78 78 W 24 39 29.87 1011 9 14.48406 N/A
6:56 am 06:56 Windy with Snow Likely 25 -3.9 20 -6.7 81 81 W 28 44 29.9 1013 9 14.48406 N/A
7:56 am 07:56 Windy with Snow Likely 24 -4.4 20 -6.7 84 84 W 23 37 29.93 1014 8 12.87472 N/A
8:34 am 08:34 Windy with Snow Likely 25 -4 18 -8 74 74 W 24 39 29.98 1015 9 14.48406 N/A
8:56 am 08:56 Windy with Snow Likely 24 -4.4 18 -7.8 77 77 W 24 39 29.96 1015 9 14.48406 N/A
9:38 am 09:38 Windy with Snow Likely 25 -4 18 -8 74 74 WSW 22 35 30.01 1016 9 14.48406 N/A
9:56 am 09:56 Windy with Snow Likely 25 -3.9 19 -7.2 78 78 W 26 43 29.98 1015 9 14.48406 N/A
10:56 am 10:56 Cloudy 26 -3.3 20 -6.7 78 78 W 22 35 30.01 1016 10 16.0934 N/A
11:56 am 11:56 Cloudy 27 -2.8 20 -6.7 75 75 W 24 39 30 1016 10 16.0934 N/A
12:56 pm 12:56 Mostly Cloudy 29 -1.7 21 -6.1 72 72 W 26 43 30 1016 10 16.0934 N/A
1:19 pm 13:19 Partly Cloudy 30 -1 21 -6 69 69 W 26 43 30.01 1016 10 16.0934 N/A
1:56 pm 13:56 Mostly Cloudy 31 -0.6 22 -5.6 69 69 W 28 44 29.99 1016 10 16.0934 N/A
2:56 pm 14:56 Mostly Sunny 32 undefined 24 -4.4 73 73 WSW 21 33 30 1016 10 16.0934 N/A
3:56 pm 15:56 Sunny 33 0.6 24 -4.4 70 70 WSW 22 35 30.01 1016 10 16.0934 N/A
4:56 pm 16:56 Sunny 33 0.6 22 -5.6 64 64 WSW 23 37 30.01 1016 10 16.0934 N/A
5:56 pm 17:56 Sunny 32 undefined 23 -5 69 69 W 14 22 30.02 1017 10 16.0934 N/A
6:56 pm 18:56 Clear 31 -0.6 23 -5 72 72 WSW 16 26 30.04 1017 10 16.0934 N/A
7:56 pm 19:56 Clear 30 -1.1 23 -5 75 75 WSW 15 24 30.06 1018 10 16.0934 N/A
8:56 pm 20:56 Clear 30 -1.1 23 -5 75 75 WSW 10 17 30.05 1018 10 16.0934 N/A
9:56 pm 21:56 Clear 30 -1.1 23 -5 75 75 WSW 9 15 30.05 1018 10 16.0934 N/A
10:56 pm 22:56 Clear 30 -1.1 24 -4.4 79 79 SW 13 20 30.05 1018 10 16.0934 N/A
11:56 pm 23:56 Clear 30 -1.1 24 -4.4 79 79 SW 7 11 30.04 1017 10 16.0934 N/A

Powered by AerisWeather